This demonstration page uses our WeatherBlox Daily Observations layout. Learn more.

Hourly Observations for August 27, 2016

Temp ( °F °C ) Dew Point ( °F °C ) Humidity (%) Winds ( mph kmh ) Pressure ( in mb ) Visibility ( mi km ) Precip ( " mm )
12:15 am 00:15 Clear 60 15.4 56 13.5 89 89 SSW 6 9 30 1016 10 16.09344 0 0
12:35 am 00:35 Clear 59 15 56 13.5 91 91 WSW 6 9 30 1016 10 16.09344 0 0
12:55 am 00:55 Clear 58 14.6 56 13.2 91 91 W 5 7 30 1016 10 16.09344 0 0
1:15 am 01:15 Clear 57 14.1 55 13 93 93 WNW 3 6 30 1016 10 16.09344 0 0
1:35 am 01:35 Clear 57 13.9 55 12.8 93 93 WNW 5 7 30 1016 10 16.09344 0 0
1:55 am 01:55 Clear 56 13.5 55 12.5 94 94 Calm 30 1016 10 16.09344 0 0
2:15 am 02:15 Clear 56 13.3 54 12.4 94 94 W 5 7 30.03 1017 7 11.265408 0 0
2:35 am 02:35 Clear 55 12.8 54 12 95 95 W 3 6 30.03 1017 7 11.265408 0 0
2:55 am 02:55 Clear 55 12.7 53 11.8 94 94 W 3 6 30.03 1017 7 11.265408 0 0
3:15 am 03:15 Clear 55 12.8 54 12 95 95 W 6 9 30.03 1017 10 16.09344 0 0
3:35 am 03:35 Clear 55 12.8 54 12 95 95 WSW 5 7 30.03 1017 7 11.265408 0 0
3:55 am 03:55 Clear with Mist and Fog 54 12.1 52 11.3 95 95 NW 6 9 30.03 1017 5 8.04672 0 0
4:15 am 04:15 Clear 54 12.1 52 11.3 95 95 WNW 5 7 30.03 1017 7 11.265408 0 0
4:35 am 04:35 Clear with Mist and Fog 54 12 52 11.1 94 94 NW 5 7 30.03 1017 4 6.437376 0 0
4:55 am 04:55 Clear with Mist and Fog 54 12 52 11.1 94 94 NW 7 11 30.03 1017 3 4.828032 0 0
5:15 am 05:15 Clear with Mist and Fog 54 12.1 53 11.4 96 96 NNW 6 9 30.03 1017 3 4.828032 0 0
5:35 am 05:35 Clear with Mist and Fog 54 12 52 11.1 94 94 NW 6 9 30.03 1017 4 6.437376 0 0
5:55 am 05:55 Clear with Mist and Fog 54 12 52 11.3 96 96 WNW 5 7 30.03 1017 4 6.437376 0 0
6:15 am 06:15 Clear with Mist and Fog 53 11.9 52 11.1 95 95 W 3 6 30.03 1017 3 4.828032 0 0
6:35 am 06:35 Clear with Mist and Fog 53 11.7 52 10.9 95 95 W 3 6 30.03 1017 3 4.828032 0 0
6:55 am 06:55 Mostly Cloudy with Mist and Fog 53 11.4 51 10.5 94 94 Calm 30.03 1017 1.75 2.816352 0 0
7:15 am 07:15 Mostly Cloudy with Mist and Fog 52 11.1 51 10.4 96 96 Calm 30.03 1017 1.5 2.414016 0 0
7:35 am 07:35 Mostly Cloudy with Mist and Fog 53 11.5 51 10.7 95 95 Calm 30.03 1017 0.75 1.207008 0 0
7:55 am 07:55 Mostly Cloudy with Mist and Fog 53 11.9 52 11.3 96 96 S 3 6 30.06 1018 3 4.828032 0 0
8:15 am 08:15 Partly Cloudy with Mist and Fog 55 12.9 54 12.2 96 96 Calm 30.06 1018 5 8.04672 0 0
8:35 am 08:35 Sunny 57 13.9 56 13.1 95 95 Calm 30.03 1017 7 11.265408 0 0
8:55 am 08:55 Sunny 59 15 56 13.6 91 91 Calm 30.03 1017 7 11.265408 0 0
9:15 am 09:15 Sunny 61 15.9 58 14.5 91 91 Calm 30.03 1017 7 11.265408 0 0
9:35 am 09:35 Sunny 62 16.8 58 14.6 87 87 Calm 30.03 1017 10 16.09344 0 0
9:55 am 09:55 Sunny 64 18 58 14.3 79 79 Calm 30 1016 10 16.09344 0 0
10:15 am 10:15 Sunny 65 18.6 58 14.2 76 76 SW 3 6 30 1016 10 16.09344 0 0
10:35 am 10:35 Sunny 67 19.5 58 14.7 74 74 Calm 29.97 1015 10 16.09344 0 0
10:55 am 10:55 Sunny 68 20 59 14.8 72 72 SE 3 6 29.97 1015 10 16.09344 0 0
11:15 am 11:15 Sunny 69 20.5 58 14.7 70 70 Calm 29.94 1014 10 16.09344 0 0
11:35 am 11:35 Sunny 71 21.8 58 14.7 64 64 SE 3 6 29.94 1014 10 16.09344 0 0
11:55 am 11:55 Sunny 73 22.5 58 14.6 61 61 SSE 3 6 29.94 1014 10 16.09344 0 0
12:15 pm 12:15 Sunny 74 23.3 59 14.9 59 59 SE 7 11 29.94 1014 10 16.09344 0 0
12:35 pm 12:35 Sunny 74 23.6 59 14.8 58 58 SSE 8 13 29.94 1014 10 16.09344 0 0
12:55 pm 12:55 Sunny 77 25 58 14.6 53 53 SE 9 15 29.91 1013 10 16.09344 0 0
1:15 pm 13:15 Sunny 78 25.5 58 14.7 51 51 S 8 13 29.91 1013 10 16.09344 0 0
1:35 pm 13:35 Sunny 79 26.3 59 14.9 50 50 SSW 10 17 29.91 1013 10 16.09344 0 0
1:55 pm 13:55 Sunny 81 27.1 59 15.2 48 48 S 10 17 29.91 1013 10 16.09344 0 0
2:15 pm 14:15 Sunny 81 27.4 60 15.7 49 49 S 12 19 29.88 1012 10 16.09344 0 0
2:35 pm 14:35 Sunny 82 27.7 60 15.8 48 48 SSW 12 19 29.88 1012 10 16.09344 0 0
2:55 pm 14:55 Sunny 81 27.4 60 15.6 49 49 S 14 22 29.88 1012 10 16.09344 0 0
3:15 pm 15:15 Sunny 82 27.9 60 15.8 48 48 S 13 20 29.88 1012 10 16.09344 0 0
3:35 pm 15:35 Sunny 83 28.1 61 16 48 48 SSE 16 26 29.85 1011 10 16.09344 0 0
3:55 pm 15:55 Sunny 82 28 60 15.8 47 47 SSE 14 22 29.85 1011 10 16.09344 0 0
4:15 pm 16:15 Sunny 83 28.2 61 16.3 48 48 SSE 14 22 29.85 1011 10 16.09344 0 0
4:35 pm 16:35 Sunny 83 28.3 61 16.2 48 48 SSE 14 22 29.85 1011 10 16.09344 0 0
4:55 pm 16:55 Sunny 83 28.5 62 16.7 49 49 S 12 19 29.85 1011 7 11.265408 0 0
5:15 pm 17:15 Sunny 83 28.5 62 16.7 49 49 SSE 13 20 29.85 1011 10 16.09344 0 0
5:35 pm 17:35 Sunny 82 28 63 17 51 51 S 12 19 29.85 1011 10 16.09344 0 0
5:55 pm 17:55 Sunny 83 28.1 63 17.1 51 51 SSE 14 22 29.85 1011 10 16.09344 0 0
6:15 pm 18:15 Sunny 81 27.4 63 17.1 53 53 SSE 13 20 29.85 1011 10 16.09344 0 0
6:35 pm 18:35 Sunny 81 27 63 17.4 56 56 S 10 17 29.85 1011 10 16.09344 0 0
6:55 pm 18:55 Sunny 79 26.2 64 17.5 59 59 S 12 19 29.88 1012 10 16.09344 0 0
7:15 pm 19:15 Sunny 79 26 64 18 61 61 SSE 8 13 29.88 1012 10 16.09344 0 0
7:35 pm 19:35 Sunny 78 25.3 65 18.2 65 65 SSE 8 13 29.88 1012 10 16.09344 0 0
7:55 pm 19:55 Sunny 78 25.3 65 18.4 66 66 SSE 6 9 29.88 1012 10 16.09344 0 0
8:15 pm 20:15 Sunny 76 24.2 65 18.2 69 69 SSE 8 13 29.88 1012 10 16.09344 0 0
8:35 pm 20:35 Clear 74 23.5 65 18.2 72 72 SE 8 13 29.94 1014 10 16.09344 0 0
8:55 pm 20:55 Clear 74 23.3 65 18.3 74 74 SE 7 11 29.94 1014 10 16.09344 0 0
9:15 pm 21:15 Clear 73 22.9 65 18.2 75 75 SE 7 11 29.94 1014 10 16.09344 0 0
9:35 pm 21:35 Clear 72 22.2 65 18.1 78 78 SE 6 9 29.94 1014 10 16.09344 0 0
9:55 pm 21:55 Clear 71 21.7 64 18 80 80 SE 7 11 29.94 1014 10 16.09344 0 0
10:15 pm 22:15 Clear 71 21.7 65 18.1 80 80 SE 8 13 29.94 1014 10 16.09344 0 0
10:35 pm 22:35 Clear 71 21.6 64 18 80 80 SE 7 11 29.94 1014 10 16.09344 0 0
10:55 pm 22:55 Clear 71 21.5 64 18 81 81 SE 7 11 29.94 1014 10 16.09344 0 0
11:15 pm 23:15 Clear 70 21.1 64 18 83 83 SE 7 11 29.94 1014 10 16.09344 0 0
11:35 pm 23:35 Clear 70 21 64 18 83 83 SE 7 11 29.94 1014 10 16.09344 0 0
11:55 pm 23:55 Clear 70 21 64 18 83 83 SE 7 11 29.94 1014 10 16.09344 0 0

Powered by AerisWeather